Location: Bennemühlen
(52.5740°N, 9.7135°E)
Time: 14:43:10
(UTC+00:00)

ACS3 Solar Sail - Visible Passes

Search period start: 20 January 2026 00:00
Search period end: 30 January 2026 00:00
Orbit: 899 x 978 km, 97.2° (Epoch: 19 January)

Date Brightness Start Highest point End Pass type
(mag) Time Alt. Az. Time Alt. Az. Time Alt. Az.
20 Jan 4.4 02:17:46 10° N 02:17:55 11° N 02:17:55 11° N visible
20 Jan 4.0 04:01:37 10° N 04:01:46 11° NNW 04:01:46 11° NNW visible
21 Jan 4.3 02:31:42 10° N 02:31:59 11° N 02:31:59 11° N visible
22 Jan 4.2 02:45:39 10° N 02:46:02 12° N 02:46:02 12° N visible
23 Jan 4.1 02:59:37 10° N 03:00:06 12° N 03:00:06 12° N visible
24 Jan 4.1 03:13:38 10° N 03:14:10 12° N 03:14:10 12° N visible
25 Jan 4.5 01:44:20 10° NNE 01:44:22 10° NNE 01:44:22 10° NNE visible
25 Jan 4.0 03:27:41 10° N 03:28:14 12° N 03:28:14 12° N visible
26 Jan 4.4 01:58:12 10° NNE 01:58:27 11° NNE 01:58:27 11° NNE visible
26 Jan 4.0 03:41:48 10° N 03:42:19 12° N 03:42:19 12° N visible
27 Jan 4.3 02:12:06 10° N 02:12:31 12° N 02:12:31 12° N visible
27 Jan 3.9 03:55:58 10° N 03:56:23 11° NNW 03:56:23 11° NNW visible
28 Jan 4.2 02:26:01 10° N 02:26:35 13° N 02:26:35 13° N visible
28 Jan 3.9 04:10:15 10° NNW 04:10:27 11° NNW 04:10:27 11° NNW visible
29 Jan 4.1 02:39:58 10° N 02:40:40 13° N 02:40:40 13° N visible
